User: anonymous   Login
Location: Unspecified
(0.0000°N, 0.0000°E)
Time: 21:40:59
(UTC+00:00)
Language:

FREEDOM - Orbit

View from above orbital plane
View from above orbital plane
View from above satellite
View from above satellite

Ground track
Ground track

The orbit data is extracted from the following two-line orbital elements,

1 41932U 98067KU  18048.52782925  .00025957  00000-0  22178-3 0  9991
2 41932  51.6361 234.1533 0004199 113.6106 246.5333 15.69296523 61938
Epoch (UTC): 17 February 2018 12:40:04
Eccentricity: 0.0004199
inclination: 51.6361°
perigee height: 358 km
apogee height: 364 km
right ascension of ascending node: 234.1533°
argument of perigee: 113.6106°
revolutions per day: 15.69296523
mean anomaly at epoch: 246.5333°
orbit number at epoch: 6193

The dashed part of the orbit path shows where the satellite is in the earth's shadow,  

DLR